Regional Weather Roundup
Issued by NWS

Home | Current Version | Previous Version | Graphics & Text | Print | Product List | Glossary On
Versions: 1 2 3 4 5 6 7 8 9 10 11 12 13 14 15 16 17 18 19 20 21 22 23 24 25 26 27 28 29 30 31 32 33 34 35 36 37 38 39 40 41 42 43 44 45 46 47 48 49 50
238
ASUS43 KBIS 260902
RWRND

NORTH DAKOTA REGIONAL WEATHER ROUNDUP
NATIONAL WEATHER SERVICE BISMARCK ND
400 AM CDT MON SEP 26 2016

NOTE: "FAIR" INDICATES FEW OR NO CLOUDS BELOW 12,000 FEET WITH NO
SIGNIFICANT WEATHER AND/OR OBSTRUCTIONS TO VISIBILITY.


NDZ001>003-009>011-017-261000-
NORTHWEST NORTH DAKOTA

CITY           SKY/WX    TMP DP  RH WIND       PRES   REMARKS
WILLISTON      CLEAR     41  33  73 CALM      30.20S
MINOT          CLEAR     50  34  54 W15       30.11S
MINOT AFB      CLEAR     46  35  64 NW10      30.09F
$$

NDZ018>021-031>035-040>046-261000-
SOUTHWEST NORTH DAKOTA

CITY           SKY/WX    TMP DP  RH WIND       PRES   REMARKS
BISMARCK       CLEAR     41  34  76 W6        30.16F
DICKINSON      CLEAR     37  33  85 W7        30.19F
GARRISON         N/A     44  37  76 W9        30.14F
HETTINGER ARPT CLEAR     39  36  89 NW5       30.23F
$$

NDZ004>008-012>016-024-026-027-054-261000-
NORTHEAST NORTH DAKOTA

CITY           SKY/WX    TMP DP  RH WIND       PRES   REMARKS
GRAND FORKS    PTCLDY    50  37  61 NW16      29.92F
GRND FRKS AFB  CLEAR     51  36  57 NW15      29.93F
DEVILS LAKE    CLEAR     48  37  65 W17       30.02S
$$

NDZ022-023-025-028>030-036>039-047>053-261000-
SOUTHEAST NORTH DAKOTA

CITY           SKY/WX    TMP DP  RH WIND       PRES   REMARKS
FARGO          CLEAR     50  37  61 W16       29.96F
JAMESTOWN      CLEAR     46  37  71 W13       30.05F
$$





USA.gov is the U.S. government's official web portal to all federal, state and local government web resources and services.